Location: Camp at the Woods
(43.2055°N, 93.0905°W)
Time: 09:45:21
(UTC+00:00)

BlueWalker 3 - Pass Details

Date: 21 April 2024
Orbit: 482 x 494 km, 53.2° (Epoch: 22 May)

Event Time Altitude Azimuth Distance (km) Brightness Sun altitude
Rises 03:40:15 0° 282° (WNW) 2,575 6.3 -24.9°
Reaches altitude 10° 03:42:51 10° 299° (WNW) 1,696 5.5 -25.2°
Maximum altitude 03:45:46 20° 349° (N) 1,183 4.4 -25.6°
Enters shadow 03:48:19 12° 35° (NE) 1,588 4.6 -25.9°
